Time,TemperatureF,DewpointF,PressureIn,WindDirection,WindDirectionDegrees,WindSpeedMPH,WindSpeedGustMPH,Humidity,HourlyPrecipIn,Conditions,Clouds,dailyrainin,SoftwareType,DateUTC
2013-02-22 00:01:00,31.0,21.0,29.81,SE,137,7.0,20.0,65,0.00,,,0.00,,2013-02-22 00:01:00,
2013-02-22 00:11:00,31.0,21.0,29.81,SE,137,7.0,20.0,65,0.00,,,0.00,,2013-02-22 00:11:00,
2013-02-22 00:21:00,31.0,21.0,29.81,ESE,120,5.0,13.0,65,0.00,,,0.00,,2013-02-22 00:21:00,
2013-02-22 00:31:00,31.0,20.0,29.81,ESE,103,10.0,19.0,64,0.00,,,0.00,,2013-02-22 00:31:00,
2013-02-22 00:41:00,31.0,20.0,29.81,ESE,103,10.0,19.0,64,0.00,,,0.00,,2013-02-22 00:41:00,
2013-02-22 00:52:00,31.0,21.0,29.81,East,86,5.0,14.0,65,0.00,,,0.00,,2013-02-22 00:52:00,
2013-02-22 01:01:00,31.0,21.0,29.80,ENE,61,3.0,15.0,65,0.00,,,0.00,,2013-02-22 01:01:00,
2013-02-22 01:11:00,31.0,21.0,29.80,ENE,61,3.0,15.0,65,0.00,,,0.00,,2013-02-22 01:11:00,
2013-02-22 01:21:00,31.0,21.0,29.80,ENE,77,6.0,16.0,65,0.00,,,0.00,,2013-02-22 01:21:00,
2013-02-22 01:32:00,31.0,21.0,29.80,East,82,3.0,13.0,66,0.00,,,0.00,,2013-02-22 01:32:00,
2013-02-22 01:41:00,31.0,21.0,29.80,East,82,3.0,13.0,66,0.00,,,0.00,,2013-02-22 01:41:00,
2013-02-22 01:52:00,31.0,21.0,29.80,East,84,9.0,16.0,65,0.00,,,0.00,,2013-02-22 01:52:00,
2013-02-22 02:01:00,31.0,21.0,29.79,ESE,106,5.0,14.0,66,0.00,,,0.00,,2013-02-22 02:01:00,
2013-02-22 02:11:00,31.0,22.0,29.79,East,97,5.0,13.0,68,0.00,,,0.00,,2013-02-22 02:11:00,
2013-02-22 02:21:00,31.0,22.0,29.79,East,97,5.0,13.0,68,0.00,,,0.00,,2013-02-22 02:21:00,
2013-02-22 02:31:00,31.0,21.0,29.79,ENE,57,6.0,14.0,66,0.00,,,0.00,,2013-02-22 02:31:00,
2013-02-22 02:41:00,31.0,21.0,29.78,East,79,6.0,14.0,67,0.00,,,0.00,,2013-02-22 02:41:00,
2013-02-22 02:52:00,31.0,21.0,29.78,East,79,6.0,14.0,67,0.00,,,0.00,,2013-02-22 02:52:00,
2013-02-22 03:01:00,31.0,21.0,29.78,East,90,4.0,14.0,66,0.00,,,0.00,,2013-02-22 03:01:00,
2013-02-22 03:11:00,31.0,21.0,29.78,ENE,69,4.0,13.0,66,0.00,,,0.00,,2013-02-22 03:11:00,
2013-02-22 03:21:00,31.0,21.0,29.78,ENE,69,4.0,13.0,66,0.00,,,0.00,,2013-02-22 03:21:00,
2013-02-22 03:31:00,31.0,21.0,29.77,NE,42,4.0,13.0,66,0.00,,,0.00,,2013-02-22 03:31:00,
2013-02-22 03:42:00,31.0,21.0,29.77,NE,42,4.0,13.0,66,0.00,,,0.00,,2013-02-22 03:42:00,
2013-02-22 03:52:00,31.0,21.0,29.77,East,88,3.0,13.0,66,0.00,,,0.00,,2013-02-22 03:52:00,
2013-02-22 04:01:00,31.0,21.0,29.77,East,98,3.0,14.0,65,0.00,,,0.00,,2013-02-22 04:01:00,
2013-02-22 04:11:00,31.0,21.0,29.77,ENE,62,4.0,11.0,66,0.00,,,0.00,,2013-02-22 04:11:00,
2013-02-22 04:21:00,31.0,21.0,29.77,ENE,62,4.0,11.0,66,0.00,,,0.00,,2013-02-22 04:21:00,
2013-02-22 04:31:00,31.0,20.0,29.76,ENE,60,12.0,18.0,64,0.00,,,0.00,,2013-02-22 04:31:00,
2013-02-22 04:41:00,31.0,20.0,29.76,ENE,60,12.0,18.0,64,0.00,,,0.00,,2013-02-22 04:41:00,
2013-02-22 04:51:00,31.0,21.0,29.76,NE,50,5.0,13.0,65,0.00,,,0.00,,2013-02-22 04:51:00,
2013-02-22 05:01:00,31.0,21.0,29.76,ENE,71,5.0,13.0,66,0.00,,,0.00,,2013-02-22 05:01:00,
2013-02-22 05:11:00,31.0,21.0,29.76,ENE,71,5.0,13.0,66,0.00,,,0.00,,2013-02-22 05:11:00,
2013-02-22 05:21:00,31.0,21.0,29.76,ENE,76,6.0,15.0,65,0.00,,,0.00,,2013-02-22 05:21:00,
2013-02-22 05:32:00,31.0,21.0,29.76,NE,54,6.0,12.0,66,0.00,,,0.00,,2013-02-22 05:32:00,
2013-02-22 05:41:00,31.0,21.0,29.76,NE,54,6.0,12.0,66,0.00,,,0.00,,2013-02-22 05:41:00,
2013-02-22 05:52:00,31.0,21.0,29.76,East,91,2.0,11.0,65,0.00,,,0.00,,2013-02-22 05:52:00,
2013-02-22 06:01:00,31.0,21.0,29.76,ESE,112,6.0,12.0,65,0.00,,,0.00,,2013-02-22 06:01:00,
2013-02-22 06:11:00,31.0,21.0,29.76,ESE,112,6.0,12.0,65,0.00,,,0.00,,2013-02-22 06:11:00,
2013-02-22 06:21:00,31.0,20.0,29.76,East,98,5.0,13.0,64,0.00,,,0.00,,2013-02-22 06:21:00,
2013-02-22 06:31:00,31.0,21.0,29.76,SSE,152,2.0,8.0,65,0.00,,,0.00,,2013-02-22 06:31:00,
2013-02-22 06:41:00,31.0,21.0,29.76,SSE,152,2.0,8.0,65,0.00,,,0.00,,2013-02-22 06:41:00,
2013-02-22 06:52:00,31.0,21.0,29.76,East,94,4.0,9.0,65,0.00,,,0.00,,2013-02-22 06:52:00,
2013-02-22 07:01:00,31.0,21.0,29.77,East,79,3.0,9.0,66,0.00,,,0.00,,2013-02-22 07:01:00,
2013-02-22 07:11:00,31.0,21.0,29.78,ENE,74,6.0,10.0,66,0.00,,,0.00,,2013-02-22 07:11:00,
2013-02-22 07:21:00,31.0,21.0,29.78,ENE,74,6.0,10.0,66,0.00,,,0.00,,2013-02-22 07:21:00,
2013-02-22 07:31:00,31.0,21.0,29.78,East,101,3.0,11.0,67,0.00,,,0.00,,2013-02-22 07:31:00,
2013-02-22 07:42:00,31.0,22.0,29.78,ENE,67,4.0,13.0,68,0.00,,,0.00,,2013-02-22 07:42:00,
2013-02-22 07:52:00,31.0,22.0,29.78,ENE,67,4.0,13.0,68,0.00,,,0.00,,2013-02-22 07:52:00,
2013-02-22 08:01:00,31.0,21.0,29.78,ESE,112,5.0,15.0,67,0.00,,,0.00,,2013-02-22 08:01:00,
2013-02-22 08:11:00,31.0,21.0,29.78,NE,48,5.0,12.0,67,0.00,,,0.00,,2013-02-22 08:11:00,
2013-02-22 08:21:00,31.0,21.0,29.78,NE,48,5.0,12.0,67,0.00,,,0.00,,2013-02-22 08:21:00,
2013-02-22 08:31:00,31.0,21.0,29.78,NE,36,4.0,13.0,66,0.00,,,0.00,,2013-02-22 08:31:00,
2013-02-22 08:41:00,31.0,21.0,29.78,NE,36,4.0,13.0,66,0.00,,,0.00,,2013-02-22 08:41:00,
2013-02-22 08:52:00,31.0,21.0,29.79,ENE,65,6.0,14.0,66,0.00,,,0.00,,2013-02-22 08:52:00,
2013-02-22 09:02:00,32.0,22.0,29.79,ESE,110,8.0,16.0,67,0.00,,,0.00,,2013-02-22 09:02:00,
2013-02-22 09:11:00,32.0,22.0,29.79,ENE,67,6.0,13.0,67,0.00,,,0.00,,2013-02-22 09:11:00,
2013-02-22 09:21:00,32.0,22.0,29.79,ENE,67,6.0,13.0,67,0.00,,,0.00,,2013-02-22 09:21:00,
2013-02-22 09:31:00,32.0,22.0,29.79,East,79,5.0,15.0,67,0.00,,,0.00,,2013-02-22 09:31:00,
2013-02-22 09:41:00,32.0,23.0,29.79,East,80,7.0,12.0,68,0.00,,,0.00,,2013-02-22 09:41:00,
2013-02-22 09:51:00,32.0,23.0,29.79,East,80,7.0,12.0,68,0.00,,,0.00,,2013-02-22 09:51:00,
2013-02-22 10:01:00,32.0,23.0,29.79,East,98,4.0,12.0,68,0.00,,,0.00,,2013-02-22 10:01:00,
2013-02-22 10:11:00,32.0,22.0,29.79,ESE,105,4.0,12.0,67,0.00,,,0.00,,2013-02-22 10:11:00,
2013-02-22 10:21:00,32.0,22.0,29.79,ESE,105,4.0,12.0,67,0.00,,,0.00,,2013-02-22 10:21:00,
2013-02-22 10:31:00,32.0,22.0,29.79,East,93,5.0,14.0,67,0.00,,,0.00,,2013-02-22 10:31:00,
2013-02-22 10:42:00,32.0,22.0,29.79,East,93,5.0,14.0,67,0.00,,,0.00,,2013-02-22 10:42:00,
2013-02-22 10:52:00,32.0,23.0,29.79,East,94,6.0,15.0,68,0.00,,,0.00,,2013-02-22 10:52:00,
2013-02-22 11:01:00,32.0,23.0,29.79,East,82,5.0,10.0,69,0.00,,,0.00,,2013-02-22 11:01:00,
2013-02-22 11:11:00,33.0,24.0,29.79,East,98,8.0,12.0,69,0.00,,,0.00,,2013-02-22 11:11:00,
2013-02-22 11:21:00,33.0,24.0,29.79,East,98,8.0,12.0,69,0.00,,,0.00,,2013-02-22 11:21:00,
2013-02-22 11:31:00,33.0,24.0,29.80,ENE,64,4.0,11.0,70,0.00,,,0.00,,2013-02-22 11:31:00,
2013-02-22 11:42:00,33.0,24.0,29.80,ENE,64,4.0,11.0,70,0.00,,,0.00,,2013-02-22 11:42:00,
2013-02-22 11:52:00,33.0,25.0,29.79,East,86,3.0,9.0,72,0.00,,,0.00,,2013-02-22 11:52:00,
2013-02-22 12:01:00,33.0,25.0,29.80,East,81,7.0,13.0,72,0.00,,,0.00,,2013-02-22 12:01:00,
2013-02-22 12:11:00,33.0,25.0,29.80,East,81,7.0,13.0,72,0.00,,,0.00,,2013-02-22 12:11:00,
2013-02-22 12:21:00,33.0,25.0,29.79,ESE,121,6.0,11.0,73,0.00,,,0.00,,2013-02-22 12:21:00,
2013-02-22 12:32:00,32.0,24.0,29.80,ENE,65,5.0,13.0,73,0.00,,,0.00,,2013-02-22 12:32:00,
2013-02-22 12:42:00,32.0,24.0,29.80,ENE,65,5.0,13.0,73,0.00,,,0.00,,2013-02-22 12:42:00,
2013-02-22 12:52:00,32.0,24.0,29.79,East,91,6.0,14.0,71,0.00,,,0.00,,2013-02-22 12:52:00,
2013-02-22 13:01:00,33.0,25.0,29.79,NE,44,5.0,12.0,71,0.00,,,0.00,,2013-02-22 13:01:00,
2013-02-22 13:11:00,33.0,25.0,29.79,NE,44,5.0,12.0,71,0.00,,,0.00,,2013-02-22 13:11:00,
2013-02-22 13:22:00,33.0,24.0,29.79,SE,130,2.0,12.0,70,0.00,,,0.00,,2013-02-22 13:22:00,
2013-02-22 13:31:00,32.0,23.0,29.78,ENE,58,6.0,12.0,70,0.00,,,0.00,,2013-02-22 13:31:00,
2013-02-22 13:41:00,32.0,23.0,29.78,ENE,58,6.0,12.0,70,0.00,,,0.00,,2013-02-22 13:41:00,
2013-02-22 13:51:00,32.0,24.0,29.78,East,95,3.0,9.0,71,0.00,,,0.00,,2013-02-22 13:51:00,
2013-02-22 14:01:00,32.0,24.0,29.78,NE,54,1.0,11.0,71,0.00,,,0.00,,2013-02-22 14:01:00,
2013-02-22 14:11:00,33.0,24.0,29.78,East,94,5.0,14.0,69,0.00,,,0.00,,2013-02-22 14:11:00,
2013-02-22 14:21:00,33.0,24.0,29.78,East,94,5.0,14.0,69,0.00,,,0.00,,2013-02-22 14:21:00,
2013-02-22 14:31:00,33.0,24.0,29.77,East,98,3.0,11.0,69,0.00,,,0.00,,2013-02-22 14:31:00,
2013-02-22 14:41:00,33.0,24.0,29.77,ENE,59,4.0,12.0,70,0.00,,,0.00,,2013-02-22 14:41:00,
2013-02-22 14:52:00,33.0,24.0,29.77,ENE,59,4.0,12.0,70,0.00,,,0.00,,2013-02-22 14:52:00,
2013-02-22 15:01:00,33.0,25.0,29.77,ENE,74,3.0,10.0,71,0.00,,,0.00,,2013-02-22 15:01:00,
2013-02-22 15:11:00,33.0,25.0,29.77,NE,46,2.0,12.0,71,0.00,,,0.00,,2013-02-22 15:11:00,
2013-02-22 15:21:00,33.0,25.0,29.77,NE,46,2.0,12.0,71,0.00,,,0.00,,2013-02-22 15:21:00,
2013-02-22 15:31:00,32.0,24.0,29.76,ESE,103,1.0,10.0,73,0.00,,,0.00,,2013-02-22 15:31:00,
2013-02-22 15:41:00,32.0,24.0,29.76,ESE,103,1.0,10.0,73,0.00,,,0.00,,2013-02-22 15:41:00,
2013-02-22 15:52:00,32.0,26.0,29.77,ENE,65,4.0,12.0,78,0.00,,,0.00,,2013-02-22 15:52:00,
2013-02-22 16:01:00,32.0,26.0,29.77,East,88,3.0,11.0,77,0.00,,,0.00,,2013-02-22 16:01:00,
2013-02-22 16:11:00,32.0,25.0,29.76,East,83,3.0,12.0,76,0.00,,,0.00,,2013-02-22 16:11:00,
2013-02-22 16:21:00,32.0,25.0,29.76,East,83,3.0,12.0,76,0.00,,,0.00,,2013-02-22 16:21:00,
2013-02-22 16:31:00,32.0,25.0,29.76,East,100,4.0,12.0,75,0.00,,,0.00,,2013-02-22 16:31:00,
2013-02-22 16:41:00,32.0,25.0,29.76,East,100,4.0,12.0,75,0.00,,,0.00,,2013-02-22 16:41:00,
2013-02-22 16:52:00,32.0,24.0,29.77,SSE,164,4.0,12.0,73,0.00,,,0.00,,2013-02-22 16:52:00,
2013-02-22 17:01:00,32.0,24.0,29.77,East,100,5.0,11.0,73,0.00,,,0.00,,2013-02-22 17:01:00,
2013-02-22 17:11:00,32.0,24.0,29.77,SE,133,2.0,11.0,73,0.00,,,0.00,,2013-02-22 17:11:00,
2013-02-22 17:21:00,32.0,24.0,29.77,SE,133,2.0,11.0,73,0.00,,,0.00,,2013-02-22 17:21:00,
2013-02-22 17:31:00,32.0,25.0,29.77,NNE,31,1.0,8.0,74,0.00,,,0.00,,2013-02-22 17:31:00,
2013-02-22 17:41:00,32.0,25.0,29.77,NNE,31,1.0,8.0,74,0.00,,,0.00,,2013-02-22 17:41:00,
2013-02-22 17:52:00,32.0,25.0,29.77,East,95,1.0,7.0,74,0.00,,,0.00,,2013-02-22 17:52:00,
2013-02-22 18:01:00,32.0,25.0,29.77,NNE,24,2.0,9.0,75,0.00,,,0.00,,2013-02-22 18:01:00,
2013-02-22 18:11:00,32.0,25.0,29.78,ENE,66,0.0,7.0,75,0.00,,,0.00,,2013-02-22 18:11:00,
2013-02-22 18:22:00,32.0,25.0,29.78,ENE,66,0.0,7.0,75,0.00,,,0.00,,2013-02-22 18:22:00,
2013-02-22 18:31:00,32.0,25.0,29.78,NE,38,1.0,6.0,75,0.00,,,0.00,,2013-02-22 18:31:00,
2013-02-22 18:42:00,32.0,25.0,29.78,NE,38,1.0,6.0,75,0.00,,,0.00,,2013-02-22 18:42:00,
2013-02-22 18:51:00,32.0,25.0,29.78,ESE,117,2.0,7.0,75,0.00,,,0.00,,2013-02-22 18:51:00,
2013-02-22 19:01:00,32.0,25.0,29.78,NE,36,2.0,7.0,75,0.00,,,0.00,,2013-02-22 19:01:00,
2013-02-22 19:11:00,32.0,25.0,29.78,ENE,65,1.0,7.0,74,0.00,,,0.00,,2013-02-22 19:11:00,
2013-02-22 19:21:00,32.0,25.0,29.78,ENE,65,1.0,7.0,74,0.00,,,0.00,,2013-02-22 19:21:00,
2013-02-22 19:31:00,32.0,25.0,29.78,NE,44,2.0,7.0,74,0.00,,,0.00,,2013-02-22 19:31:00,
2013-02-22 19:41:00,32.0,25.0,29.78,NNE,22,3.0,9.0,74,0.00,,,0.00,,2013-02-22 19:41:00,
2013-02-22 19:52:00,32.0,25.0,29.78,NNE,22,3.0,9.0,74,0.00,,,0.00,,2013-02-22 19:52:00,
2013-02-22 20:01:00,32.0,25.0,29.78,NNE,31,2.0,10.0,74,0.00,,,0.00,,2013-02-22 20:01:00,
2013-02-22 20:11:00,32.0,25.0,29.78,NNE,31,2.0,10.0,74,0.00,,,0.00,,2013-02-22 20:11:00,
2013-02-22 20:21:00,32.0,25.0,29.78,NNE,17,2.0,11.0,75,0.00,,,0.00,,2013-02-22 20:21:00,
2013-02-22 20:31:00,32.0,25.0,29.78,NE,40,5.0,9.0,75,0.00,,,0.00,,2013-02-22 20:31:00,
2013-02-22 20:41:00,32.0,25.0,29.78,NE,40,5.0,9.0,75,0.00,,,0.00,,2013-02-22 20:41:00,
2013-02-22 20:52:00,32.0,25.0,29.78,NE,38,4.0,11.0,76,0.00,,,0.00,,2013-02-22 20:52:00,
2013-02-22 21:01:00,32.0,25.0,29.78,NNE,28,4.0,8.0,76,0.00,,,0.00,,2013-02-22 21:01:00,
2013-02-22 21:11:00,32.0,25.0,29.78,NE,47,4.0,10.0,75,0.00,,,0.00,,2013-02-22 21:11:00,
2013-02-22 21:21:00,32.0,25.0,29.78,NE,47,4.0,10.0,75,0.00,,,0.00,,2013-02-22 21:21:00,
2013-02-22 21:31:00,32.0,25.0,29.78,NNE,22,4.0,10.0,74,0.00,,,0.00,,2013-02-22 21:31:00,
2013-02-22 21:41:00,32.0,25.0,29.78,NE,50,4.0,10.0,74,0.00,,,0.00,,2013-02-22 21:41:00,
2013-02-22 21:52:00,32.0,25.0,29.78,NE,50,4.0,10.0,74,0.00,,,0.00,,2013-02-22 21:52:00,
2013-02-22 22:01:00,32.0,25.0,29.78,ENE,76,3.0,12.0,75,0.00,,,0.00,,2013-02-22 22:01:00,
2013-02-22 22:11:00,32.0,25.0,29.78,ENE,76,3.0,12.0,75,0.00,,,0.00,,2013-02-22 22:11:00,
2013-02-22 22:21:00,32.0,24.0,29.78,NE,35,7.0,15.0,73,0.00,,,0.00,,2013-02-22 22:21:00,
2013-02-22 22:31:00,32.0,24.0,29.78,NE,35,7.0,15.0,73,0.00,,,0.00,,2013-02-22 22:31:00,
2013-02-22 22:41:00,32.0,24.0,29.78,NE,35,7.0,15.0,73,0.00,,,0.00,,2013-02-22 22:41:00,
2013-02-22 22:51:00,32.0,24.0,29.78,NE,35,7.0,15.0,73,0.00,,,0.00,,2013-02-22 22:51:00,
2013-02-22 23:01:00,32.0,24.0,29.78,NE,35,7.0,15.0,73,0.00,,,0.00,,2013-02-22 23:01:00,